призрачный форум

www.prizrak.ws

Информация о пользователе

Привет, Гость! Войдите или зарегистрируйтесь.


Вы здесь » www.prizrak.ws » Software, ОС, программное обеспечение..


Software, ОС, программное обеспечение..

Тем 16451 страница 16500 из 157995

Тема Ответов Просмотров Последнее сообщение
0 0 2020-08-12 08:07:08  Xue Wang
16452 SVI.Pro.v2.1  Xue Wang
0 0 2020-08-12 07:58:49  Xue Wang
16453 IHS EViews v10.0 Win32 64  Xue Wang
0 4 2020-08-12 07:48:06  Xue Wang
16454 Carlson Xport v4.19  Xue Wang
0 0 2020-08-12 07:47:01  Xue Wang
16455 STS WINROAD 2018  Xue Wang
0 1 2020-08-12 07:37:20  Xue Wang
16456 Carel 1tool 2.6.46  Xue Wang
0 4 2020-08-12 07:27:52  Xue Wang
16457 IHS DEEPE$T v3.7  Xue Wang
0 0 2020-08-12 07:27:39  Xue Wang
16458 STATA v14.2  Xue Wang
0 1 2020-08-12 07:18:08  Xue Wang
16459 Cape pack V2.15  Xue Wang
0 1 2020-08-12 07:09:17  Xue Wang
16460 IGOR Pro v7  Xue Wang
0 1 2020-08-12 07:08:43  Xue Wang
16461 STAB WELL v4.4  Xue Wang
0 1 2020-08-12 06:58:52  Xue Wang
0 6 2020-08-12 06:50:32  Xue Wang
16463 IGI ParCAM v8.8  Xue Wang
0 1 2020-08-12 06:50:16  Xue Wang
0 0 2020-08-12 06:39:43  Xue Wang
0 4 2020-08-12 06:33:19  Xue Wang
16466 IES Oersted v9.2  Xue Wang
0 4 2020-08-12 06:31:18  Xue Wang
16467 SPT wellflo v8.3  Xue Wang
0 8 2020-08-12 06:21:00  Xue Wang
16468 Cadence MMSIM v15.10.385  Xue Wang
0 0 2020-08-12 06:15:32  Xue Wang
16469 IES Magneto v9.2  Xue Wang
0 2 2020-08-12 06:12:17  Xue Wang
16470 SPSQC v7.5  Xue Wang
0 4 2020-08-12 06:03:01  Xue Wang
16471 Cadence MDV 18.03 Linux  Xue Wang
0 4 2020-08-12 05:57:43  Xue Wang
16472 IES Faraday v9.2 x64  Xue Wang
0 0 2020-08-12 05:53:02  Xue Wang
16473 SPEOS v2018.1.0 x64  Xue Wang
0 0 2020-08-12 05:44:05  Xue Wang
16474 Cadaplus APLUS v18.034  Xue Wang
0 4 2020-08-12 05:39:25  Xue Wang
16475 IES Electro v9.2  Xue Wang
0 4 2020-08-12 05:31:41  Xue Wang
0 4 2020-08-12 05:25:04  Xue Wang
16477 CadLink SignLab v10.0  Xue Wang
0 0 2020-08-12 05:21:08  Xue Wang
16478 IDEA.StatiCa.v10.0.24 x64  Xue Wang
0 0 2020-08-12 05:13:37  Xue Wang
0 0 2020-08-12 05:05:01  Xue Wang
16480 CablEquity v2013  Xue Wang
0 0 2020-08-12 05:02:57  Xue Wang
16481 ICADSX.Mechanical v6L1  Xue Wang
0 0 2020-08-12 04:54:11  Xue Wang
16482 SPACE-E.v5.4  Xue Wang
0 0 2020-08-12 04:45:48  Xue Wang
16483 CYMGRD v6.51  Xue Wang
0 0 2020-08-12 04:44:09  Xue Wang
16484 ICAD MX V7L1  Xue Wang
0 0 2020-08-12 04:35:00  Xue Wang
16485 SOFTWARE ENGINEERING  Xue Wang
0 4 2020-08-12 04:27:17  Xue Wang
16486 CYMCAP 7.2  Xue Wang
0 0 2020-08-12 04:27:02  Xue Wang
16487 IBM.Rational.DOORs v9.2  Xue Wang
0 0 2020-08-12 04:17:42  Xue Wang
0 4 2020-08-12 04:09:58  Xue Wang
16489 CX Supervisor v3.24  Xue Wang
0 4 2020-08-12 04:08:48  Xue Wang
0 4 2020-08-12 03:59:05  Xue Wang
0 0 2020-08-12 03:52:44  Xue Wang
0 3 2020-08-12 03:52:29  Xue Wang
0 0 2020-08-12 03:41:12  Xue Wang
16494 CUP Tower.V2.0  Xue Wang
0 0 2020-08-12 03:36:11  Xue Wang
16495 SNT EXata Developer v2.2  Xue Wang
0 7 2020-08-12 03:35:45  Xue Wang
0 0 2020-08-12 03:23:25  Xue Wang
16497 CRYSTAL v2018.3  Xue Wang
0 0 2020-08-12 03:20:51  Xue Wang
16498 SMT Kingdom v2019  Xue Wang
0 0 2020-08-12 03:18:40  Xue Wang
0 5 2020-08-12 03:07:07  Xue Wang
16500 CRYSTAL PROD v2018  Xue Wang
0 0 2020-08-12 03:04:52  Xue Wang

Вы здесь » www.prizrak.ws » Software, ОС, программное обеспечение..